FW8739 Weather Reports


time (UTC)temp
F
wind
direction
speed
knots
gust
knots
rain 1hr
in
rain 24hr
in
rain mn
in
humidity
%
barometer
mb
20260505083555 56 186 0.0 0.0 0.00 0.00 0.00 99 1007.3
20260505083052 56 186 0.0 0.0 0.00 0.00 0.00 99 1007.5
20260505082548 56 186 0.0 0.0 0.00 0.00 0.00 99 1007.5
20260505082045 56 186 0.0 0.0 0.00 0.00 0.00 98 1007.8
20260505081541 56 186 0.0 0.0 0.00 0.00 0.00 98 1007.7
20260505081038 56 186 0.0 0.0 0.00 0.00 0.00 98 1007.8
20260505080534 56 186 0.0 0.0 0.00 0.00 0.00 98 1007.8
20260505080031 56 186 0.0 0.0 0.00 0.00 0.00 98 1007.9
20260505075527 57 186 0.0 0.0 0.00 0.00 0.00 97 1007.9
20260505075024 57 185 0.0 0.0 0.00 0.00 0.00 97 1008.0
20260505074521 57 186 0.0 0.0 0.00 0.00 0.00 96 1008.2
20260505074019 57 186 0.0 0.0 0.00 0.00 0.00 96 1008.2
20260505073516 57 191 0.0 0.0 0.00 0.00 0.00 96 1008.2
20260505073014 57 186 0.0 0.0 0.00 0.00 0.00 95 1008.3
20260505072509 58 192 0.0 0.0 0.00 0.00 0.00 94 1008.4
20260505072006 57 187 0.0 0.0 0.00 0.00 0.00 95 1008.3
20260505071501 57 187 0.0 0.0 0.00 0.00 0.00 95 1008.3
20260505071000 58 186 0.0 0.0 0.00 0.00 0.00 95 1008.3
20260505070456 58 189 0.0 0.0 0.00 0.00 0.00 94 1008.0
20260505065952 58 189 0.0 0.0 0.00 0.00 0.00 94 1008.2
20260505065448 58 186 0.0 0.0 0.00 0.00 0.00 93 1008.1
20260505064945 58 189 0.0 0.0 0.00 0.00 0.00 93 1007.7
20260505064442 58 187 0.0 0.0 0.00 0.00 0.00 93 1007.8
20260505063941 59 188 0.0 0.0 0.00 0.00 0.00 92 1007.5
20260505063437 59 192 0.0 0.0 0.00 0.00 0.00 92 1007.4
20260505062933 59 185 0.0 0.0 0.00 0.00 0.00 91 1007.2
20260505062431 59 189 0.0 0.0 0.00 0.00 0.00 90 1007.1
20260505061927 59 187 0.0 0.0 0.00 0.00 0.00 89 1007.3
20260505061426 60 188 0.0 0.0 0.00 0.00 0.00 88 1007.2
20260505060923 60 179 0.0 0.0 0.00 0.00 0.00 88 1007.1
20260505060420 60 192 0.0 0.0 0.00 0.00 0.00 88 1007.5
20260505055916 60 187 0.0 0.0 0.00 0.00 0.00 87 1007.7
20260505055412 61 187 0.0 0.0 0.00 0.00 0.00 85 1007.5
20260505054909 62 183 0.0 0.0 0.00 0.00 0.00 83 1007.6
20260505054406 61 185 0.0 0.0 0.00 0.00 0.00 85 1007.9
20260505053904 61 190 0.0 0.0 0.00 0.00 0.00 83 1007.9
20260505053401 61 186 0.0 0.0 0.00 0.00 0.00 85 1007.9
20260505052858 61 186 0.0 0.0 0.00 0.00 0.00 84 1008.1
20260505052355 61 198 0.0 0.0 0.00 0.00 0.00 83 1008.1
20260505051852 62 180 0.0 0.0 0.00 0.00 0.00 83 1008.0
20260505051349 62 185 0.0 0.0 0.00 0.00 0.00 82 1008.1
20260505050847 63 189 0.0 0.0 0.00 0.00 0.00 81 1008.2
20260505050345 63 169 0.0 0.0 0.00 0.00 0.00 79 1008.0
20260505041313 65 177 0.0 0.0 0.00 0.00 0.00 76 1008.7
20260505040810 66 136 0.9 0.9 0.00 0.00 0.00 74 1008.6
20260505040307 66 170 0.0 0.0 0.00 0.00 0.00 74 1008.6
20260505035804 66 197 0.0 0.0 0.00 0.00 0.00 75 1008.6
20260505035259 67 192 0.0 0.0 0.00 0.00 0.00 72 1008.6
20260505034757 66 183 0.0 0.0 0.00 0.00 0.00 72 1008.7
20260505034254 67 163 0.0 0.9 0.00 0.00 0.00 71 1008.6
20260505033750 66 156 0.9 0.9 0.00 0.00 0.00 70 1008.7
20260505033248 67 87 0.9 1.7 0.00 0.00 0.00 72 1008.6
20260505032746 67 143 0.0 0.9 0.00 0.00 0.00 71 1008.7
20260505032241 67 186 0.0 0.0 0.00 0.00 0.00 71 1008.6
20260505031739 67 209 0.0 0.0 0.00 0.00 0.00 72 1008.6
20260505031235 66 175 0.0 0.0 0.00 0.00 0.00 71 1008.5
20260505030732 67 151 0.0 0.0 0.00 0.00 0.00 71 1008.2
20260505030228 66 157 0.0 0.0 0.00 0.00 0.00 70 1008.5
20260505025724 66 188 0.9 0.9 0.00 0.00 0.00 70 1008.2
20260505025223 67 174 0.0 0.0 0.00 0.00 0.00 72 1008.2
20260505024720 67 131 0.0 0.0 0.00 0.00 0.00 71 1008.1
20260505024217 67 188 0.0 0.0 0.00 0.00 0.00 72 1008.0
20260505023715 66 140 0.0 0.0 0.00 0.00 0.00 71 1008.0
20260505023212 66 149 0.0 0.0 0.00 0.00 0.00 72 1007.9
20260505022709 67 188 0.0 0.0 0.00 0.00 0.00 71 1007.6
20260505022206 68 150 0.0 0.0 0.00 0.00 0.00 68 1007.6
20260505021703 69 162 0.0 0.0 0.00 0.00 0.00 68 1007.3
20260505021200 70 184 0.0 0.0 0.00 0.00 0.00 66 1007.3
20260505020655 69 150 0.9 0.9 0.00 0.00 0.00 65 1007.3
20260505020151 69 189 0.9 0.9 0.00 0.00 0.00 66 1007.3
20260505015649 69 61 0.9 1.7 0.00 0.00 0.00 65 1007.3
20260505015145 69 170 0.0 0.9 0.00 0.00 0.00 66 1007.3
20260505014642 69 194 1.7 1.7 0.00 0.00 0.00 66 1007.1
20260505014139 69 166 0.0 0.0 0.00 0.00 0.00 68 1007.0
20260505013636 69 185 0.0 0.0 0.00 0.00 0.00 68 1007.1
20260505013133 70 208 0.9 1.7 0.00 0.00 0.00 64 1007.2
20260505012632 69 187 0.0 0.0 0.00 0.00 0.00 67 1007.1
20260505012128 70 173 0.0 0.0 0.00 0.00 0.00 67 1007.2
20260505011624 71 199 0.0 0.0 0.00 0.00 0.00 64 1007.1
20260505011121 72 147 0.0 0.0 0.00 0.00 0.00 62 1007.1
20260505010617 71 160 0.0 0.0 0.00 0.00 0.00 62 1007.1
20260505010114 71 174 0.0 0.0 0.00 0.00 0.00 64 1006.9
20260505005610 72 175 0.0 0.0 0.00 0.00 0.00 61 1007.0
20260505005107 72 72 0.9 1.7 0.00 0.00 0.00 60 1006.7
20260505004604 73 194 0.0 0.0 0.00 0.00 0.00 60 1006.8
20260505004101 73 174 0.0 0.9 0.00 0.00 0.00 57 1006.9
20260505003558 74 177 0.0 0.0 0.00 0.00 0.00 59 1006.7
20260505003055 74 189 0.0 0.0 0.00 0.00 0.00 58 1006.7
20260505002550 74 230 0.0 0.0 0.00 0.00 0.00 57 1006.8
20260505002049 74 175 0.0 0.0 0.00 0.00 0.00 60 1006.7
20260505001546 75 185 0.0 0.0 0.00 0.00 0.00 54 1006.7
20260505001043 76 136 0.9 1.7 0.00 0.00 0.00 53 1007.0
20260505000541 76 183 0.9 0.9 0.00 0.00 0.00 55 1006.7
20260505000038 76 183 0.0 0.9 0.00 0.00 0.00 54 1006.7
20260504235535 77 172 0.9 0.9 0.00 0.00 0.00 54 1006.6
20260504235031 77 180 0.9 0.9 0.00 0.00 0.00 53 1006.6
20260504234528 78 194 0.9 0.9 0.00 0.00 0.00 56 1006.7
20260504234025 79 100 1.7 1.7 0.00 0.00 0.00 52 1006.5
20260504233520 80 230 0.0 0.9 0.00 0.00 0.00 49 1006.8
20260504233018 79 179 0.9 1.7 0.00 0.00 0.00 51 1006.8
20260504232514 79 189 0.0 0.9 0.00 0.00 0.00 50 1006.9
20260504232012 78 126 0.9 0.9 0.00 0.00 0.00 51 1006.7
20260504231509 78 220 1.7 1.7 0.00 0.00 0.00 54 1006.9
20260504231005 78 188 1.7 1.7 0.00 0.00 0.00 50 1006.9
20260504230501 79 156 1.7 1.7 0.00 0.00 0.00 52 1006.8
20260504230000 79 165 0.0 0.9 0.00 0.00 0.00 55 1006.7
20260504225457 79 160 0.9 0.9 0.00 0.00 0.00 51 1006.8
20260504224954 79 201 1.7 2.6 0.00 0.00 0.00 50 1006.7
20260504224450 79 128 2.6 4.3 0.00 0.00 0.00 50 1006.2
20260504223947 80 180 0.0 0.9 0.00 0.00 0.00 51 1006.7
20260504223444 80 184 0.0 0.0 0.00 0.00 0.00 51 1006.5
20260504222939 79 33 1.7 4.3 0.00 0.00 0.00 51 1006.6
20260504222437 79 141 0.0 1.7 0.00 0.00 0.00 52 1006.7
20260504221935 80 171 1.7 4.3 0.00 0.00 0.00 50 1006.6
20260504221431 80 234 0.0 0.9 0.00 0.00 0.00 51 1006.7
20260504220928 80 173 1.7 1.7 0.00 0.00 0.00 50 1006.6
20260504220425 80 170 1.7 2.6 0.00 0.00 0.00 49 1006.5
20260504215922 80 166 2.6 2.6 0.00 0.00 0.00 48 1006.6
20260504215419 80 201 1.7 1.7 0.00 0.00 0.00 51 1006.6
20260504214915 80 202 1.7 1.7 0.00 0.00 0.00 48 1006.8
20260504214412 81 187 0.9 1.7 0.00 0.00 0.00 50 1006.8
20260504213909 81 15 1.7 1.7 0.00 0.00 0.00 50 1006.9
20260504213404 80 192 2.6 4.3 0.00 0.00 0.00 48 1006.9
20260504212902 81 214 2.6 2.6 0.00 0.00 0.00 46 1006.8
20260504212358 82 7 2.6 2.6 0.00 0.00 0.00 47 1006.8
20260504211856 82 150 0.0 0.0 0.00 0.00 0.00 47 1006.9
20260504211351 82 128 2.6 5.2 0.00 0.00 0.00 45 1007.0
20260504210849 83 108 1.7 1.7 0.00 0.00 0.00 45 1007.0
20260504210346 83 192 1.7 1.7 0.00 0.00 0.00 47 1007.3
20260504205843 83 253 0.9 0.9 0.00 0.00 0.00 49 1007.4
20260504205341 84 197 0.9 1.7 0.00 0.00 0.00 49 1007.3
20260504204839 84 35 2.6 5.2 0.00 0.00 0.00 46 1007.3
20260504204337 83 148 0.0 0.9 0.00 0.00 0.00 47 1007.4
20260504203836 84 216 1.7 2.6 0.00 0.00 0.00 51 1007.5
20260504203333 84 38 2.6 4.3 0.00 0.00 0.00 45 1007.4
20260504202828 83 192 0.9 1.7 0.00 0.00 0.00 47 1007.5
20260504202326 82 191 0.9 0.9 0.00 0.00 0.00 49 1007.7
20260504201822 82 277 2.6 4.3 0.00 0.00 0.00 47 1007.8
20260504201320 82 171 0.9 1.7 0.00 0.00 0.00 46 1008.0
20260504200817 82 248 2.6 2.6 0.00 0.00 0.00 50 1007.9
20260504200314 82 181 0.0 0.0 0.00 0.00 0.00 48 1008.0
20260504195810 81 72 1.7 2.6 0.00 0.00 0.00 49 1008.2
20260504195306 82 137 0.0 0.9 0.00 0.00 0.00 48 1008.1
20260504194803 82 125 1.7 1.7 0.00 0.00 0.00 45 1008.2
20260504194259 84 215 1.7 1.7 0.00 0.00 0.00 49 1008.2
20260504193755 83 191 0.0 0.9 0.00 0.00 0.00 53 1008.2
20260504193252 82 222 1.7 1.7 0.00 0.00 0.00 46 1008.3
20260504192751 83 222 0.9 1.7 0.00 0.00 0.00 48 1008.4
20260504192248 83 229 2.6 4.3 0.00 0.00 0.00 52 1008.5
20260504191747 83 280 5.2 9.6 0.00 0.00 0.00 45 1008.4
20260504191243 84 189 1.7 1.7 0.00 0.00 0.00 45 1008.4
20260504190739 82 114 0.0 0.9 0.00 0.00 0.00 49 1008.4
20260504190236 82 184 0.9 1.7 0.00 0.00 0.00 49 1008.6
20260504185732 82 104 0.9 0.9 0.00 0.00 0.00 48 1008.5
20260504185229 81 190 1.7 2.6 0.00 0.00 0.00 47 1008.5
20260504184725 82 72 1.7 2.6 0.00 0.00 0.00 46 1008.5
20260504184221 82 294 2.6 4.3 0.00 0.00 0.00 52 1008.3
20260504183717 82 256 1.7 2.6 0.00 0.00 0.00 50 1008.5
20260504183214 81 141 1.7 1.7 0.00 0.00 0.00 49 1008.4
20260504182713 81 78 2.6 4.3 0.00 0.00 0.00 46 1008.4
20260504182209 81 213 3.5 6.1 0.00 0.00 0.00 46 1008.5
20260504181707 81 50 3.5 6.1 0.00 0.00 0.00 48 1008.4
20260504181204 80 197 3.5 4.3 0.00 0.00 0.00 49 1008.7
20260504180703 80 281 0.9 1.7 0.00 0.00 0.00 47 1008.6
20260504180201 81 193 4.3 7.0 0.00 0.00 0.00 49 1008.6
20260504175658 80 138 3.5 5.2 0.00 0.00 0.00 47 1008.8
20260504175155 80 136 0.9 1.7 0.00 0.00 0.00 51 1008.7
20260504174653 80 358 6.1 7.8 0.00 0.00 0.00 50 1008.9
20260504174150 80 187 0.9 0.9 0.00 0.00 0.00 48 1009.0
20260504173647 81 234 3.5 6.1 0.00 0.00 0.00 49 1009.0
20260504173144 79 203 0.9 1.7 0.00 0.00 0.00 50 1009.0
20260504172641 79 281 4.3 6.1 0.00 0.00 0.00 48 1009.0
20260504172137 79 218 2.6 4.3 0.00 0.00 0.00 48 1009.1
20260504171633 80 227 1.7 2.6 0.00 0.00 0.00 47 1009.3
20260504171131 80 207 5.2 6.1 0.00 0.00 0.00 47 1009.1
20260504170627 78 183 0.9 1.7 0.00 0.00 0.00 50 1009.4
20260504170125 79 7 3.5 5.2 0.00 0.00 0.00 49 1009.3
20260504151010 73 147 4.3 6.1 0.00 0.00 0.00 54 1010.2
20260504150508 73 188 0.9 0.9 0.00 0.00 0.00 55 1010.4
20260504140933 69 88 0.0 0.9 0.00 0.00 0.00 65 1010.8
20260504140430 68 176 0.0 0.9 0.00 0.00 0.00 66 1011.2
20260504130355 55 186 0.0 0.0 0.00 0.00 0.00 99 1011.3
20260504120318 49 187 0.0 0.0 0.00 0.00 0.00 99 1011.2
20260504110242 47 187 0.0 0.0 0.00 0.00 0.00 99 1010.9
20260504100205 48 185 0.0 0.0 0.00 0.00 0.00 99 1011.2
20260504090128 51 188 0.0 0.0 0.00 0.00 0.00 99 1011.5